Location: Baralle
(50.2109°N, 3.0572°E)
Time: 21:54:38
(UTC+00:00)

Daily predictions for brighter satellites

Satellite Brightness Start Highest point End
(mag) Time Altitude Azimuth Time Altitude Azimuth Time Altitude Azimuth
Cosmos 2034 Rocket 4.3 16:43:35 10° NNW 16:49:45 74° W 16:55:53 10° S
Cosmos 2237 Rocket 3.3 16:45:41 10° SSE 16:50:14 25° ESE 16:54:49 10° NE
RESURS DK-1 2.9 16:47:13 10° NNW 16:50:57 35° NE 16:54:41 10° ESE
Cosmos 1515 Rocket 4.1 16:49:35 10° SSW 16:53:50 61° WNW 16:58:09 10° N
Tsikada Rocket 4.0 16:48:27 10° S 16:54:33 72° E 17:00:43 10° NNE
BlueWalker 3 2.1 16:52:18 10° WNW 16:55:52 51° N 16:59:28 10° E
USA 81 4.0 16:51:26 10° S 16:56:41 74° E 17:01:57 10° N
BREEZE-M DEB (TANK) 2.6 16:55:14 10° SW 16:57:17 27° SSE 16:59:40 10° E
Cosmos 1455 1.6 16:54:39 10° N 16:57:51 70° ENE 17:01:03 10° SSE
Cosmos 2278 Rocket 2.2 16:52:30 10° NNW 16:58:11 67° ENE 17:03:49 10° SE
COSMO-SKYMED 1 3.9 16:57:36 10° NE 17:00:49 20° E 17:04:02 10° SE
Cosmos 2219 Rocket 2.7 16:55:36 10° SW 17:01:07 61° NW 17:06:42 10° NNE
SJ-7 4.4 16:58:22 10° SE 17:02:01 48° ENE 17:05:43 10° N
ARGOS Delta rocket 3.7 16:58:02 10° SSE 17:02:36 61° ENE 17:07:00 10° N
ISS -2.1 17:00:30 10° SSW 17:03:12 23° SE 17:05:54 10° E
CZ-4C R/B 3.3 17:01:27 10° SSE 17:04:31 18° ESE 17:08:00 10° ENE
CSL-04 DEB 4.2 17:02:39 10° SSE 17:06:29 67° ENE 17:10:16 10° N
Meteor 1-21 4.3 17:03:31 10° S 17:09:02 63° E 17:14:38 10° NNE
Cosmos 1758 4.5 17:06:32 10° NNW 17:10:15 46° W 17:13:57 10° SSW
USA 306 2.5 17:09:10 10° WNW 17:11:03 29° N 17:12:55 14° ENE
SL-14 R/B 4.1 17:07:35 10° SSW 17:11:16 51° WNW 17:14:59 10° N
CORIOLIS 4.3 17:05:58 10° SSE 17:11:24 83° WSW 17:16:53 10° NNW
Cosmos 1763 Rocket 3.6 17:06:57 10° S 17:12:04 61° ESE 17:17:09 10° NNE
Spot 4 Rocket 4.0 17:07:48 10° SSE 17:12:56 83° ENE 17:18:06 10° NNW
YAOGAN 1 3.6 17:10:28 10° ESE 17:13:48 23° ENE 17:17:09 10° N
Cosmos 1733 Rocket 3.2 17:09:41 10° N 17:14:00 50° ENE 17:18:17 10° SSE
Cosmos 540 Rocket 3.6 17:12:50 10° S 17:17:48 54° ESE 17:22:48 10° NNE
Landsat 7 4.2 17:15:28 10° SE 17:19:49 40° ENE 17:24:12 10° N
Cosmos 2322 3.9 17:14:45 10° SSW 17:20:29 79° WNW 17:26:15 10° NNE
Cosmos 468 Rocket 4.3 17:16:48 10° S 17:21:45 46° ESE 17:26:40 10° NE
USA 215 3.5 17:16:12 11° ENE 17:22:32 65° NNW 17:28:59 10° W
Cosmos 2228 Rocket 3.4 17:21:17 10° SSE 17:25:38 48° E 17:30:02 10° NNE
Cosmos 2279 Rocket 3.9 17:19:53 10° N 17:26:07 81° E 17:32:18 10° SSE
NOSS 8 (A) 4.2 17:25:18 10° NW 17:28:12 82° SW 17:31:36 10° SE
Cosmos 1656 Rocket 4.4 17:23:39 10° NNW 17:28:26 30° NE 17:33:14 10° ESE
Cosmos 1898 Rocket 3.6 17:23:37 10° NNW 17:28:51 58° ENE 17:34:05 10° SE
Cosmos 841 Rocket 4.4 17:26:52 10° SSE 17:31:20 29° E 17:35:00 14° NE
Aureole 1 Rocket 4.3 17:25:08 10° NNW 17:32:55 75° ENE 17:39:53 10° SSE
PSLV R/B 3.8 17:29:41 10° S 17:33:43 69° WSW 17:37:49 10° NNW
Okean 1-7 3.5 17:35:27 10° SSE 17:39:21 35° E 17:43:16 10° NNE
SL-16 R/B 3.5 17:35:46 10° SE 17:39:38 19° E 17:40:54 18° E
Cosmos 1980 3.8 17:34:09 10° S 17:39:41 60° ESE 17:44:57 11° NE
NOSS 8 (E) 4.4 17:38:40 10° SW 17:42:44 83° SE 17:44:41 23° NE
Cosmos 1953 2.2 17:39:06 10° NNW 17:42:51 82° W 17:46:34 10° S
SMAP 4.4 17:38:28 10° S 17:42:54 43° W 17:47:22 10° NNW
SKYMED 2 3.6 17:44:53 10° NNE 17:49:11 55° E 17:53:26 10° S
NOSS 0 Rocket 3.9 17:43:26 10° SSW 17:49:36 88° ESE 17:55:40 11° NNE
Cosmos 1818 3.7 17:46:10 10° NW 17:51:34 56° NE 17:56:19 13° ESE
ATLAS 2AS CENTAUR R/B 2.7 17:46:22 10° NW 17:53:08 58° NE 17:59:05 13° ESE
NOSS 8 (H) 4.3 17:50:34 10° SW 17:54:27 88° NW 17:55:54 30° NE
Cosmos 2369 Rocket 2.9 17:49:35 10° NNW 17:54:34 32° NE 17:56:55 23° E
Resurs 01 Rocket 3.7 17:57:26 12° NNE 17:57:26 12° NNE 17:57:59 10° NNE
ACS3 Solar Sail 1.8 17:50:19 10° SSE 17:56:39 68° ENE 18:03:00 10° N
COSMOS 2428 3.4 17:51:24 10° SW 17:56:58 54° NW 18:02:34 10° NNE
Cosmos 372 Rocket 3.9 17:53:48 10° NNW 17:58:55 87° WSW 18:04:00 10° SSE
Cosmos 2333 Rocket 4.2 17:54:55 10° W 17:59:00 20° NW 18:03:08 10° N
DNEPR-1 R/B 4.4 17:59:03 10° NW 18:03:47 52° WSW 18:07:56 10° SSE
BREEZE-M DEB (TANK) 3.4 17:57:00 10° WSW 18:05:50 81° S 18:07:22 35° E
Cosmos 1908 Rocket 3.5 18:02:47 10° N 18:07:05 57° ENE 18:11:20 10° SSE
Cosmos 2322 Rocket 4.4 18:04:55 10° WNW 18:08:24 16° NNW 18:11:53 10° N
Cosmos 2360 Rocket 4.4 18:07:27 10° WNW 18:11:14 18° NNW 18:15:02 10° N
Meteor 1-31 Rocket 2.5 18:09:22 10° SSE 18:12:55 86° WSW 18:16:32 10° NNW
EO 1 Delta rocket 3.7 18:08:19 10° NNE 18:13:07 79° E 18:17:45 10° S
Okean 3 4.2 18:09:36 10° SSW 18:13:36 51° WNW 18:17:38 10° N
Cosmos 1707 Rocket 4.2 18:10:02 10° SSW 18:14:24 57° WNW 18:18:47 10° N
Okean 2 3.9 18:13:30 10° SSW 18:17:22 56° WNW 18:21:18 10° N
Cosmos 2297 3.9 18:12:17 10° NNW 18:17:51 48° NE 18:20:17 30° ESE
Cosmos 1937 Rocket 3.5 18:13:46 10° NNW 18:18:55 80° WSW 18:24:05 10° SSE
CZ-2C R/B 2.5 18:22:18 56° NNE 18:22:18 56° NNE 18:25:09 10° N
Cosmos 2026 Rocket 4.1 18:16:58 10° SSE 18:23:05 52° E 18:29:13 10° NNE
Cosmos 858 Rocket 4.4 18:18:16 10° NNW 18:23:30 88° ENE 18:28:44 10° SSE
BREEZE-M DEB (TANK) 3.5 18:13:10 10° WSW 18:27:10 66° SSE 18:28:56 40° E
Cosmos 1943 Rocket 3.7 18:22:27 10° NW 18:27:38 38° WSW 18:32:45 10° S
RESURS DK-1 4.4 18:24:57 10° NW 18:28:26 29° WSW 18:31:55 10° S
Cosmos 1428 Rocket 4.3 18:23:43 10° S 18:29:53 75° E 18:36:03 10° NNE
YAOGAN 3 4.5 18:26:42 10° SSE 18:30:58 86° W 18:35:14 10° NNW
Cosmos 2237 Rocket 2.6 18:28:12 10° SW 18:33:51 64° WNW 18:37:59 19° NNE
BlueWalker 3 1.7 18:30:11 10° WNW 18:33:52 85° SSW 18:33:53 85° SSW
COSMO-SKYMED 1 3.3 18:33:03 10° N 18:37:17 51° WNW 18:41:29 10° SW
ISS -3.2 18:36:16 10° WSW 18:39:01 57° WSW 18:39:01 57° WSW
USA 306 4.3 18:39:58 10° WNW 18:40:49 20° WNW 18:40:49 20° WNW
Cosmos 1782 Rocket 4.0 18:38:34 10° N 18:41:42 45° NNE 18:41:42 45° NNE
Cosmos 2344 3.9 18:36:58 10° WSW 18:44:13 57° NW 18:48:48 24° NE
Cosmos 2219 Rocket 4.4 18:42:38 10° WNW 18:46:16 17° NNW 18:49:56 10° N
YAOGAN 1 3.5 18:45:20 10° S 18:49:27 46° W 18:53:36 10° NNW
YAOGAN 11 3.9 18:51:30 84° SSW 18:51:30 84° SSW 18:55:39 10° SSW
CZ-4C R/B 1.9 18:47:19 10° SW 18:51:51 77° NW 18:53:04 53° NNE
Nadezhda 4 Rocket 4.5 18:47:30 10° SSW 18:53:32 59° WNW 18:59:38 10° N
ATLAS 5 CENTAUR R/B 2.8 18:53:19 10° SW 18:54:39 23° SW 18:54:39 23° SW
Cosmos 2195 Rocket 4.5 18:51:49 10° SSW 18:58:01 81° W 19:04:12 10° N
Meteor 1-24 Rocket 3.8 18:52:14 10° S 18:58:03 62° E 18:58:08 62° E
CZ-4B R/B 4.5 19:00:45 26° N 19:00:45 26° N 19:03:15 10° N
SPOT 1/Viking Rocket 3.9 18:55:36 10° S 19:00:43 63° WSW 19:05:51 10° NNW
Cosmos 1703 Rocket 3.9 18:56:39 10° SSW 19:01:04 64° WNW 19:02:12 46° NNW
USA 215 3.7 19:03:32 42° NE 19:05:05 49° N 19:11:20 10° WNW
Resurs 1-3 4.3 19:01:01 10° S 19:05:13 52° W 19:09:28 10° NNW
Meteor 2-5 Rocket 3.9 19:02:55 10° S 19:07:38 58° SSE 19:07:38 58° SSE
Cosmos 1656 Rocket 4.0 19:06:57 10° NW 19:12:21 60° WSW 19:14:50 32° S
Cosmos 841 Rocket 4.3 19:07:50 10° SW 19:12:55 48° WNW 19:15:03 31° N
SL-16 R/B 2.2 19:17:21 10° SSW 19:22:50 80° W 19:22:50 80° W
Cosmos 1553 Rocket 3.8 19:17:42 10° N 19:23:52 89° NE 19:23:52 89° NE
ADEOS 3.9 19:29:31 63° WNW 19:29:31 63° WNW 19:34:17 10° NNW
Resurs 01 Rocket 4.1 19:34:52 13° NNW 19:34:52 13° NNW 19:35:24 10° NNW
Cosmos 2369 Rocket 2.6 19:33:26 10° NW 19:38:45 57° WSW 19:38:45 57° WSW
ACS3 Solar Sail 3.9 19:35:28 10° SW 19:40:43 26° W 19:45:59 10° NNW
ATLAS 2AS CENTAUR R/B 3.6 19:37:35 10° NW 19:43:52 42° WSW 19:46:35 29° SSW
Cosmos 2237 Rocket 4.4 20:15:12 10° WNW 20:19:04 18° NW 20:19:48 18° NNW
